Weather in Kundustug

Russia / Tyva Republic     51°34′26″N   95°10′47″E
temp.,
°C
wind,
m/s
gust,
m/s
humid.,
%
clouds,
%
prec.,
mm/h
press.,
hPa
HPBL,
m
5 march, fri
fri501:00−16ese22920 0.0 103420
04:00−17ese22890 0.0 103420
07:00−19se228615 0.0 103320
10:00−15ese228510 0.0 103098
13:00−10e127632 0.0 1027236
16:00−7nne1184100 0.0 1024114
19:00−11w2287100 0.1 102721
22:00−12w2287100 0.0 103020
6 march, sat
sat601:00−14s1184100 0.0 103520
04:00−17ese118860 0.0 103620
07:00−17ese129032 0.0 103720
10:00−12ese118842 0.0 103485
13:00−8ne118470 0.0 1030216
16:00−7wnw119075 0.0 102693
19:00−13w119441 0.0 102821
22:00−14se009514 0.0 102821
7 march, sun
sun701:00−15ese119918 0.0 102821
04:00−15ese119830 0.0 102720
07:00−16se119653 0.0 102820
10:00−11ene008778 0.0 102760
13:00−8nnw118486 0.0 1025182
16:00−8wnw119082 0.0 102494
19:00−11w118691 0.0 102721
22:00−12wnw1183100 0.0 102921
8 march, mon
mon801:00−15wsw008757 0.0 103021
04:00−16ese118944 0.0 103020
07:00−16ese119258 0.0 103220
10:00−10ese119071 0.0 102974
13:00−7n118846 0.0 1026162
16:00−6nw119230 0.0 102486
19:00−12w009415 0.0 102521
22:00−13wnw00950 0.0 102721
9 march, tue
tue901:00−13ne009826 0.0 102621
04:00−12wnw1199100 0.0 102730
07:00−11nw1196100 0.1 103022
10:00−9nw1192100 0.0 1030119
13:00−7nnw219194 0.0 1029185
16:00−6wnw118945 0.0 1028111
19:00−12sw009022 0.0 103021
22:00−13ese11850 0.0 103121